Regional Weather Roundup
Issued by NWS Cleveland, OH

Home | Current Version | Previous Version | Graphics & Text | Print | Product List | Glossary On
Versions: 1 2 3 4 5 6 7 8 9 10 11 12 13 14 15 16 17 18 19 20 21 22 23 24 25 26 27 28 29 30 31 32 33 34 35 36 37 38 39 40 41 42 43 44 45 46 47 48 49 50
000
ASUS41 KCLE 271710
RWRCLE
OHIO REGIONAL WEATHER ROUNDUP
NATIONAL WEATHER SERVICE CLEVELAND, OH
100 PM EDT THU APR 27 2017

NOTE: "FAIR" INDICATES FEW OR NO CLOUDS BELOW 12,000 FEET WITH NO
SIGNIFICANT WEATHER AND/OR OBSTRUCTIONS TO VISIBILITY.

OHZ001>008-015>018-024>027-034-035-043-044-271800-
   NORTHWEST OHIO

CITY           SKY/WX    TMP DP  RH WIND       PRES   REMARKS
DEFIANCE       MOSUNNY   64  54  69 SW15G30   29.55R
FINDLAY        PTSUNNY   71  58  63 SW18G29   29.55F
TOLEDO EXPRESS CLOUDY    65  58  78 SW17G26   29.53F
TOLEDO EXEC    CLOUDY    67  60  78 SW16G25   29.54F
LIMA           PTSUNNY   68  58  70 SW16G32   29.57S
$$

OHZ009>014-019>023-028>033-038-089-271800-
   NORTHEAST OHIO

CITY           SKY/WX    TMP DP  RH WIND       PRES   REMARKS
CLE-HOPKINS    CLOUDY    79  52  38 S21G32    29.58F
CLE-LAKEFRONT  CLOUDY    80  55  42 S18G31    29.54F
CUY CO. ARPT   PTSUNNY   81  57  44 S23G29    29.59F
LORAIN-ELYRIA  CLOUDY    75  51  43 S26G39    29.56F
ASHTABULA      MOSUNNY   80  58  46 S17G23    29.62F
AKRON-CANTON   PTSUNNY   79  53  40 S23G44    29.61F
WOOSTER        PTSUNNY   76  55  48 SW25G31   29.59F
MANSFIELD      CLOUDY    72  54  53 S22G30    29.59R
YOUNGSTOWN     PTSUNNY   78  56  46 S14G23    29.63F
$$

OHZ042-051>053-060>062-070>072-077>081-271800-
  SOUTHWEST OHIO

CITY           SKY/WX    TMP DP  RH WIND       PRES   REMARKS
CINC-COVINGTON LGT RAIN  62  59  90 SW9G31    29.65R
CINC-LUNKEN    MOSUNNY   70  62  76 SW17G23   29.63S
HAMILTON       LGT RAIN  65  63  93 W13G22    29.64R FOG
DAYTON         PTSUNNY   68  58  70 SW20G31   29.61F
WRIGHT-PAT AFB PTSUNNY   68  59  74 S17G25    29.61F
DAYTON GENERAL PTSUNNY   68  59  73 SW17G23   29.61F
WILMINGTON     PTSUNNY   66  63  90 SW12      29.63S
$$

OHZ036-037-039>041-045>050-054>059-063>069-073>076-082>088-271800-
  CENTRAL AND SOUTHEAST OHIO

CITY           SKY/WX    TMP DP  RH WIND       PRES   REMARKS
COLUMBUS       CLOUDY    71  57  61 W23G29    29.61S
OSU AIRPORT    LGT RAIN  68  58  70 SW15G22   29.62R
BOLTON FIELD   CLOUDY    68  57  68 W17G26    29.63R
RICKENBACK AFB CLOUDY    75  57  54 SW21G30   29.60F
NEWARK         CLOUDY    73  54  51 S20G33    29.61S
MARION         CLOUDY    68  54  60 W16G23    29.60R
LANCASTER      CLOUDY    77  58  51 SW14G23   29.62F
ZANESVILLE     CLOUDY    75  54  47 S21G29    29.63F
NEW PHILLY     NOT AVBL
$$




USA.gov is the U.S. government's official web portal to all federal, state and local government web resources and services.